• In Belarus
  • List of Countries
  • For 7 days
  • Water Temperature
  • Satellite Maps
  • Weather Map
  • Weather Widgets
  • user-avatar
    Login

    Hourly Weather Megri

    Today, 22 April, Sunday

    Time Temperature Precipitation Wind Pressure Humidity
    00:00 +3°C° 1.2 mm 2 mps 617 mmHg 83%
    01:00 +3°C° 0.7 mm 2 mps 617 mmHg 83%
    02:00 +3°C° 0.7 mm 2 mps 617 mmHg 83%
    03:00 +4°C° 0 mm 1 mps 617 mmHg 84%
    04:00 +4°C° 0.5 mm 1 mps 617 mmHg 83%
    05:00 +4°C° 0.5 mm 1 mps 617 mmHg 82%
    06:00 +4°C° 0.5 mm 1 mps 617 mmHg 82%
    07:00 +5°C° 0.2 mm 1 mps 618 mmHg 79%
    08:00 +6°C° 0.2 mm 1 mps 618 mmHg 77%
    09:00 +6°C° 0.2 mm 1 mps 618 mmHg 75%
    10:00 +7°C° 0.1 mm 1 mps 618 mmHg 72%
    11:00 +8°C° 0.1 mm 1 mps 618 mmHg 69%
    12:00 +9°C° 0.1 mm 1 mps 618 mmHg 66%
    13:00 +10°C° 0.1 mm 1 mps 618 mmHg 65%
    14:00 +11°C° 0.1 mm 1 mps 618 mmHg 64%
    15:00 +10°C° 0.1 mm 2 mps 618 mmHg 62%
    16:00 +11°C° 0.1 mm 1 mps 618 mmHg 64%
    17:00 +10°C° 0.1 mm 1 mps 618 mmHg 66%
    18:00 +10°C° 0.1 mm 1 mps 618 mmHg 67%
    19:00 +9°C° 0.1 mm 1 mps 618 mmHg 70%
    20:00 +9°C° 0.1 mm 1 mps 617 mmHg 73%
    21:00 +8°C° 0.1 mm 1 mps 617 mmHg 76%
    22:00 +8°C° 0.1 mm 1 mps 617 mmHg 77%
    23:00 +8°C° 0.1 mm 1 mps 617 mmHg 78%

    Tomorrow, 23 April, Monday

    Time Temperature Precipitation Wind Pressure Humidity
    00:00 +7°C° 0.1 mm 1 mps 617 mmHg 80%
    01:00 +6°C° 0.6 mm 2 mps 617 mmHg 81%
    02:00 +6°C° 0.6 mm 2 mps 617 mmHg 82%
    03:00 +6°C° 0.6 mm 2 mps 617 mmHg 83%
    04:00 +6°C° 0.2 mm 2 mps 617 mmHg 83%
    05:00 +5°C° 0.2 mm 2 mps 617 mmHg 82%
    06:00 +5°C° 0.2 mm 2 mps 617 mmHg 82%
    07:00 +6°C° 0.1 mm 2 mps 617 mmHg 76%
    08:00 +7°C° 0.1 mm 2 mps 617 mmHg 71%
    09:00 +8°C° 0.1 mm 2 mps 618 mmHg 65%
    10:00 +9°C° 0.1 mm 2 mps 618 mmHg 61%
    11:00 +9°C° 0.1 mm 2 mps 618 mmHg 56%
    12:00 +10°C° 0.1 mm 3 mps 619 mmHg 51%
    13:00 +11°C° 0 mm 3 mps 619 mmHg 48%
    14:00 +12°C° 0 mm 3 mps 619 mmHg 45%
    15:00 +12°C° 0 mm 3 mps 619 mmHg 42%
    16:00 +12°C° 0 mm 3 mps 619 mmHg 43%
    17:00 +11°C° 0 mm 3 mps 619 mmHg 45%
    18:00 +12°C° 0 mm 2 mps 619 mmHg 46%
    19:00 +9°C° 0 mm 2 mps 619 mmHg 51%
    20:00 +8°C° 0 mm 2 mps 619 mmHg 57%
    21:00 +8°C° 0 mm 1 mps 619 mmHg 63%
    22:00 +8°C° 0 mm 1 mps 619 mmHg 64%
    23:00 +8°C° 0 mm 1 mps 619 mmHg 66%

    Day after tomorrow, 24 April, Tuesday

    Time Temperature Precipitation Wind Pressure Humidity
    00:00 +7°C° 0 mm 1 mps 619 mmHg 68%
    01:00 +7°C° 0 mm 1 mps 619 mmHg 67%
    02:00 +7°C° 0 mm 1 mps 619 mmHg 66%
    03:00 +7°C° 0 mm 1 mps 619 mmHg 66%
    04:00 +7°C° 0 mm 1 mps 620 mmHg 64%
    05:00 +7°C° 0 mm 1 mps 620 mmHg 63%
    06:00 +6°C° 0 mm 0 mps 621 mmHg 62%
    07:00 +9°C° 0 mm 1 mps 621 mmHg 56%
    08:00 +11°C° 0 mm 1 mps 622 mmHg 51%
    09:00 +12°C° 0 mm 2 mps 623 mmHg 45%
    10:00 +13°C° 0 mm 2 mps 623 mmHg 42%
    11:00 +13°C° 0 mm 3 mps 624 mmHg 39%
    12:00 +14°C° 0 mm 3 mps 624 mmHg 35%
    13:00 +14°C° 0 mm 3 mps 624 mmHg 34%
    14:00 +16°C° 0 mm 3 mps 624 mmHg 32%
    15:00 +16°C° 0 mm 3 mps 624 mmHg 31%
    16:00 +16°C° 0 mm 2 mps 624 mmHg 33%
    17:00 +15°C° 0 mm 2 mps 624 mmHg 35%
    18:00 +14°C° 0 mm 1 mps 624 mmHg 37%
    19:00 +13°C° 0 mm 1 mps 624 mmHg 43%
    20:00 +12°C° 0 mm 1 mps 624 mmHg 48%
    21:00 +11°C° 0 mm 1 mps 623 mmHg 53%
    22:00 +10°C° 0 mm 1 mps 623 mmHg 55%
    23:00 +10°C° 0 mm 1 mps 623 mmHg 56%

    25 April, Wednesday

    Time Temperature Precipitation Wind Pressure Humidity
    00:00 +9°C° 0 mm 1 mps 623 mmHg 57%
    01:00 +9°C° 0 mm 1 mps 623 mmHg 57%
    02:00 +9°C° 0 mm 1 mps 623 mmHg 58%
    03:00 +8°C° 0 mm 1 mps 623 mmHg 59%
    04:00 +9°C° 0 mm 1 mps 623 mmHg 58%
    05:00 +9°C° 0 mm 1 mps 623 mmHg 57%
    06:00 +9°C° 0 mm 1 mps 623 mmHg 56%
    07:00 +11°C° 0 mm 1 mps 624 mmHg 50%
    08:00 +13°C° 0 mm 1 mps 624 mmHg 44%
    09:00 +15°C° 0 mm 1 mps 625 mmHg 38%
    10:00 +16°C° 0 mm 1 mps 625 mmHg 36%
    11:00 +17°C° 0 mm 2 mps 625 mmHg 33%
    12:00 +18°C° 0 mm 2 mps 625 mmHg 31%
    13:00 +18°C° 0 mm 2 mps 625 mmHg 30%
    14:00 +18°C° 0 mm 2 mps 625 mmHg 29%
    15:00 +19°C° 0 mm 3 mps 624 mmHg 28%
    16:00 +18°C° 0 mm 2 mps 624 mmHg 31%
    17:00 +17°C° 0 mm 2 mps 624 mmHg 34%
    18:00 +16°C° 0 mm 1 mps 623 mmHg 36%
    19:00 +15°C° 0 mm 1 mps 623 mmHg 43%
    20:00 +14°C° 0 mm 1 mps 623 mmHg 49%
    21:00 +12°C° 0 mm 2 mps 623 mmHg 55%
    22:00 +12°C° 0 mm 2 mps 623 mmHg 60%
    23:00 +10°C° 0 mm 2 mps 623 mmHg 65%

    26 April, Thursday

    Time Temperature Precipitation Wind Pressure Humidity
    00:00 +10°C° 0 mm 2 mps 623 mmHg 70%
    01:00 +9°C° 0 mm 2 mps 623 mmHg 72%
    02:00 +9°C° 0 mm 2 mps 623 mmHg 75%
    03:00 +8°C° 0 mm 2 mps 623 mmHg 77%
    04:00 +9°C° 0 mm 2 mps 623 mmHg 76%
    05:00 +9°C° 0 mm 2 mps 623 mmHg 75%
    06:00 +9°C° 0 mm 2 mps 624 mmHg 74%
    07:00 +12°C° 0 mm 2 mps 624 mmHg 65%
    08:00 +13°C° 0 mm 2 mps 625 mmHg 57%
    09:00 +15°C° 0 mm 2 mps 626 mmHg 48%
    10:00 +16°C° 0 mm 2 mps 626 mmHg 44%
    11:00 +17°C° 0 mm 2 mps 626 mmHg 40%
    12:00 +18°C° 0 mm 2 mps 626 mmHg 37%
    13:00 +19°C° 0.1 mm 2 mps 626 mmHg 36%
    14:00 +19°C° 0.1 mm 2 mps 626 mmHg 36%
    15:00 +19°C° 0.1 mm 2 mps 626 mmHg 35%
    16:00 +19°C° 0.4 mm 2 mps 626 mmHg 40%
    17:00 +18°C° 0.4 mm 2 mps 626 mmHg 45%
    18:00 +17°C° 0.4 mm 3 mps 625 mmHg 50%
    19:00 +16°C° 0.3 mm 3 mps 625 mmHg 56%
    20:00 +13°C° 0.3 mm 3 mps 625 mmHg 63%
    21:00 +12°C° 0.3 mm 4 mps 625 mmHg 70%
    22:00 +12°C° 0 mm 3 mps 625 mmHg 72%
    23:00 +11°C° 0 mm 3 mps 625 mmHg 74%

    27 April, Friday

    Time Temperature Precipitation Wind Pressure Humidity
    00:00 +11°C° 0 mm 3 mps 625 mmHg 76%
    01:00 +10°C° 0 mm 2 mps 625 mmHg 76%
    02:00 +10°C° 0 mm 2 mps 624 mmHg 77%
    03:00 +10°C° 0 mm 2 mps 624 mmHg 77%
    04:00 +10°C° 0 mm 2 mps 624 mmHg 75%
    05:00 +10°C° 0 mm 2 mps 625 mmHg 73%
    06:00 +10°C° 0 mm 2 mps 625 mmHg 72%
    07:00 +12°C° 0 mm 3 mps 625 mmHg 63%
    08:00 +14°C° 0 mm 3 mps 626 mmHg 55%
    09:00 +17°C° 0 mm 3 mps 626 mmHg 47%
    10:00 +18°C° 0 mm 4 mps 626 mmHg 42%
    11:00 +19°C° 0 mm 4 mps 626 mmHg 38%
    12:00 +21°C° 0 mm 4 mps 626 mmHg 34%
    13:00 +21°C° 0.1 mm 4 mps 626 mmHg 34%
    14:00 +21°C° 0.1 mm 5 mps 626 mmHg 34%
    15:00 +20°C° 0.1 mm 5 mps 626 mmHg 35%
    16:00 +19°C° 0.6 mm 4 mps 625 mmHg 41%
    17:00 +18°C° 0.6 mm 4 mps 625 mmHg 48%
    18:00 +17°C° 0.6 mm 3 mps 625 mmHg 55%
    19:00 +16°C° 0.9 mm 3 mps 625 mmHg 61%
    20:00 +14°C° 0.9 mm 3 mps 624 mmHg 67%
    21:00 +12°C° 0.9 mm 3 mps 624 mmHg 73%
    22:00 +12°C° 0 mm 3 mps 624 mmHg 72%
    23:00 +13°C° 0 mm 2 mps 624 mmHg 72%
    Show more